Weather History for Pittsfield, MA

Change the Weather History Date:

Friday, February 1, 2013

  Actual Average Record
Temperature  
Mean Temperature 21 °F 21 °F  
Max Temperature 25 °F 29 °F 51 °F (2012)
Min Temperature 16 °F 13 °F -16 °F (1935)
Degree Days  
Heating Degree Days 44 44  
Month to date heating degree days 44 44  
Since 1 July heating degree days 3860 4269  
Cooling Degree Days 0 0  
Month to date cooling degree days 0 0  
Year to date cooling degree days 0 0  
Moisture  
Dew Point 8 °F    
Average Humidity 61    
Maximum Humidity 71    
Minimum Humidity 50    
Precipitation  
Precipitation T in 0.08 in 1.42 in (1951)
Month to date precipitation T 0.08  
Year to date precipitation 2.27 3.00  
Sea Level Pressure  
Sea Level Pressure 29.84 in    
Wind  
Wind Speed 15 mph (WNW)    
Max Wind Speed 30 mph    
Max Gust Speed 39 mph    
Visibility 8 miles    
Events Snow    
T = Trace of Precipitation, MM = Missing Value Source: NWS Daily Summary

Daily Weather History Graph

Daily Weather History Graph

Search for Another Location

Airport:

Trip Planner

Search our weather history database for the weather conditions in past years. The results will help you decide how hot, cold, wet, or windy it might be!

Date:

Astronomy

Feb. 01, 2013 Rise Set
Actual Time 7:06 AM EST 5:07 PM EST
Civil Twilight 6:36 AM EST 5:37 PM EST
Nautical Twilight 6:03 AM EST 6:10 PM EST
Astronomical Twilight 5:30 AM EST 6:43 PM EST
Moon 11:20 PM EST (2/1) 9:30 AM EST (2/1)
Length of Visible Light 11h 00m
Length of Day
10h 00m
Waning Gibbous, 70% of the Moon is Illuminated
Feb 1
Waning Gibbous
Feb 3
Last Quarter
Feb 10
New
Feb 17
First Quarter
Feb 25
Full

Hourly Weather History & Observations

Time (EST) Temp. Windchill Dew Point Humidity Pressure Visibility Wind Dir Wind Speed Gust Speed Precip Events Conditions
12:54 AM 23.0 °F 8.7 °F 10.0 °F 58% 29.60 in 10.0 mi West 18.4 mph 28.8 mph N/A   Partly Cloudy
1:54 AM 23.0 °F 10.1 °F 7.0 °F 50% 29.63 in 10.0 mi West 15.0 mph 29.9 mph N/A   Scattered Clouds
3:54 AM 21.0 °F 11.4 °F 14.0 °F 74% 29.65 in 10.0 mi WNW 8.1 mph - N/A   Overcast
4:54 AM 21.0 °F 6.6 °F 12.9 °F 71% 29.67 in 3.0 mi West 17.3 mph 28.8 mph 0.00 in Snow Light Snow
6:54 AM 19.9 °F 5.7 °F 8.1 °F 60% 29.72 in 10.0 mi West 16.1 mph 24.2 mph N/A   Overcast
8:54 AM 21.9 °F 9.8 °F 7.0 °F 53% 29.78 in 10.0 mi West 12.7 mph 21.9 mph N/A   Overcast
9:54 AM 21.9 °F 8.2 °F 7.0 °F 53% 29.80 in 10.0 mi WNW 16.1 mph 26.5 mph N/A   Mostly Cloudy
11:54 AM 21.9 °F 8.7 °F 6.1 °F 51% 29.80 in 10.0 mi WNW 15.0 mph 31.1 mph N/A   Scattered Clouds
12:30 PM 21.2 °F 6.4 °F 12.2 °F 68% 29.75 in 4.0 mi WNW 18.4 mph 21.9 mph 0.00 in Snow Light Snow
1:19 PM 23.0 °F 7.6 °F 8.6 °F 54% 29.75 in 10.0 mi West 21.9 mph 32.2 mph N/A   Overcast
1:39 PM 21.2 °F 6.0 °F 10.4 °F 63% 29.76 in 1.8 mi WNW 19.6 mph 27.6 mph 0.00 in Snow Light Snow
1:44 PM 21.2 °F 7.8 °F 10.4 °F 63% 29.75 in 2.0 mi WNW 15.0 mph 27.6 mph 0.00 in Snow Light Snow
1:48 PM 21.2 °F 6.8 °F 8.6 °F 58% 29.76 in 3.0 mi WNW 17.3 mph 28.8 mph 0.00 in Snow Light Snow
1:54 PM 21.9 °F 6.2 °F 7.0 °F 53% 29.81 in 9.0 mi NW 21.9 mph 33.4 mph 0.00 in   Mostly Cloudy
4:54 PM 19.0 °F 6.8 °F 6.1 °F 57% 29.94 in 5.0 mi WNW 11.5 mph 31.1 mph 0.00 in Snow Light Snow
5:54 PM 18.0 °F 3.6 °F 3.0 °F 52% 29.99 in 10.0 mi WNW 15.0 mph 20.7 mph 0.00 in   Mostly Cloudy
6:54 PM 18.0 °F 6.1 °F 3.9 °F 54% 30.03 in 10.0 mi WNW 10.4 mph 18.4 mph N/A   Overcast
7:54 PM 17.1 °F 7.6 °F 6.1 °F 62% 30.05 in 10.0 mi West 6.9 mph 19.6 mph N/A   Overcast
8:54 PM 17.1 °F 6.6 °F 7.0 °F 65% 30.06 in 10.0 mi West 8.1 mph - N/A   Overcast
9:54 PM 17.1 °F 5.8 °F 7.0 °F 65% 30.07 in 9.0 mi West 9.2 mph 18.4 mph 0.00 in   Overcast
10:54 PM 18.0 °F 1.3 °F 5.0 °F 57% 30.09 in 10.0 mi WNW 20.7 mph 26.5 mph N/A   Overcast
11:54 PM 16.0 °F -0.9 °F 7.0 °F 68% 30.12 in 9.0 mi WNW 19.6 mph 31.1 mph 0.00 in Snow Light Snow